Regional Weather Roundup
Issued by NWS

Home | Current Version | Previous Version | Graphics & Text | Print | Product List | Glossary On
Versions: 1 2 3 4 5 6 7 8 9 10 11 12 13 14 15 16 17 18 19 20 21 22 23 24 25 26 27 28 29 30 31 32 33 34 35 36 37 38 39 40 41 42 43 44 45 46 47 48 49 50
000
ASUS43 KMPX 220501
RWRMN
WEATHER ROUNDUP FOR MINNESOTA
NATIONAL WEATHER SERVICE TWIN CITIES/CHANHASSEN MN
1100 PM CST TUE FEB 21 2017


NOTE: "FAIR" INDICATES FEW OR NO CLOUDS BELOW 12,000 FEET WITH NO
SIGNIFICANT WEATHER AND/OR OBSTRUCTIONS TO VISIBILITY. N/A MEANS
CURRENT SKY AND/OR WEATHER CONDITIONS ARE NOT AVAILABLE.

MNZ060>063-068>070-220600-
   Twin Cities Metro

CITY           SKY/WX    TMP DP  RH WIND       PRES   REMARKS
TWIN CITIES    PTCLDY    48  42  80 CALM      29.68F
ST PAUL        PTCLDY    40  40 100 SE3       29.69F FOG
CRYSTAL        CLEAR     43  39  86 S5        29.67F
BLAINE         CLEAR     48  46  93 S3        29.67F
LAKEVILLE      CLEAR     46  43  87 CALM      29.69F
EDEN PRAIRIE   CLEAR     47  43  86 CALM      29.68F
SOUTH ST PAUL  CLEAR     43  42  95 CALM      29.68F FOG
LAKE ELMO      FAIR      41  41 100 CALM      29.69F
$$
MNZ001>005-007-008-013>017-022>024-027-028-220600-
   Northwest Minnesota

CITY           SKY/WX    TMP DP  RH WIND       PRES   REMARKS
BEMIDJI        CLOUDY    37  36  97 CALM      29.66F
HALLOCK        FOG       30  28  93 CALM      29.66F VSB 1/4
ROSEAU         CLOUDY    32  27  80 CALM      29.67F
WARROAD        CLOUDY    30  27  86 E3        29.67F FOG
THIEF RVR FALL CLOUDY    33  32  96 CALM      29.66F FOG
CROOKSTON      CLOUDY    32  32 100 CALM      29.67F FOG
FOSSTON        CLOUDY    34  34 100 CALM      29.67S FOG
DETROIT LAKES  CLEAR     34  32  93 CALM      29.70S
MOORHEAD       CLOUDY    36  34  93 CALM      29.69F
PARK RAPIDS    CLOUDY    33  31  92 W3        29.66F
MAHNOMEN       FAIR      33  33  99 S5        29.68S FOG     WCI  29
$$
MNZ006-009>011-018-025>026-220600-
   North Central Minnesota

CITY           SKY/WX    TMP DP  RH WIND       PRES   REMARKS
BAUDETTE       CLOUDY    32  31  96 N5        29.66F WCI  27
FLAG ISLAND    CLOUDY    34  30  86 N5        29.67F WCI  30
INTL FALLS     CLOUDY    34  31  88 CALM      29.66F
WASKISH        CLOUDY    36  34  93 CALM      29.66F
BIG FORK       CLOUDY    41  36  81 CALM      29.66F
LONGVILLE      CLOUDY    36  34  93 CALM      29.67S
GRAND RAPIDS   MOCLDY    39  36  89 CALM      29.67F
CRANE LAKE     PTCLDY    28  28 100 CALM      29.69R
ORR            CLOUDY    36  30  80 CALM      29.64F
COOK           CLOUDY    37  34  87 CALM      29.67S
WALKER         CLOUDY    36  35  96 CALM      29.66S
$$
MNZ012-019>021-037-220600-
   Northeast Minnesota

CITY           SKY/WX    TMP DP  RH WIND       PRES   REMARKS
DULUTH         CLOUDY    42  37  82 W8        29.66F
ELY            MOCLDY    37  34  87 CALM      29.67R
HIBBING        LGT RAIN  38  36  92 N8        29.65F
EVELETH        CLOUDY    38  34  84 SW5       29.69F
DULUTH HARBOR  CLOUDY    36  34  93 CALM      29.69F
TWO HARBORS    PTCLDY    37  34  87 W6        29.66R
SILVER BAY     CLOUDY    34  32  93 CALM      29.66R
GRAND MARAIS     N/A     34  32  92 CALM      29.67S
G MARAIS ARPRT CLOUDY    30  27  86 N3        29.65S
$$
MNZ029>031-032-039>041-046>048-054>057-064-220600-
   West Central Minnesota

CITY           SKY/WX    TMP DP  RH WIND       PRES   REMARKS
FERGUS FALLS   CLOUDY    37  37 100 NE3       29.72S
WHEATON        MOCLDY    37  36  93 CALM      29.70R
MORRIS         CLOUDY    41  39  93 E7        29.66R
ALEXANDRIA     CLOUDY    37  37 100 CALM      29.67F
ELBOW LAKE     FAIR      36  36 100 E3        29.68R
WADENA         CLEAR     36  34  93 CALM      29.67F
GLENWOOD       CLOUDY    41  39  93 N3        29.67F
APPLETON       CLOUDY    41  37  87 SE5       29.65F
BENSON         CLOUDY    39  36  87 CALM      29.68S FOG
ORTONVILLE     CLOUDY    39  37  93 CALM      29.65S
MADISON        CLOUDY    43  41  93 SE8       29.65F
WILLMAR        FOG       37  37 100 CALM      29.68F VSB 1/2
$$
MNZ033>034-036-042>043-049>051-058-059-220600-
   Central Minnesota

CITY           SKY/WX    TMP DP  RH WIND       PRES   REMARKS
ST CLOUD       CLOUDY    37  37 100 CALM      29.67S FOG
SAUK CENTRE    FAIR      33  33 100 CALM      29.67F FOG
PAYNESVILLE    CLOUDY    35  36 100 CALM      29.67F
AITKIN         CLEAR     34  30  86 CALM      29.66S FOG
PINE RIVER     PTCLDY    34  34 100 CALM      29.71S
BRAINERD       CLEAR     33  32  96 CALM      29.68R
STAPLES        CLOUDY    36  34  93 CALM      29.68F
LONG PRAIRIE   FAIR      34  32  93 CALM      29.68R
LITTLE FALLS     N/A    N/A N/A N/A CALM        N/A  VSB 1
LITCHFIELD     PTCLDY    37  37 100 CALM      29.68F
BUFFALO        PTCLDY    37  36  94 CALM      29.69S
MAPLE LAKE     FOG       37  37  99 CALM      29.69S VSB 1
HUTCHINSON     FOG       39  39 100 CALM      29.69S VSB 1
$$
MNZ037-044-045-052-053-220600-
   East Central Minnesota

CITY           SKY/WX    TMP DP  RH WIND       PRES   REMARKS
PRINCETON      PTCLDY    39  37  93 CALM      29.68S FOG
MORA           PTCLDY    36  34  93 CALM      29.69F FOG
CAMBRIDGE      PTCLDY    41  37  87 CALM      29.66S
RUSH CITY      PTCLDY    39  37  93 CALM      29.68S
MOOSE LAKE     PTCLDY    36  34  93 CALM      29.65F
HINCKLEY       FAIR      37  36  93 CALM      29.67F
CLOQUET        PTCLDY    43  37  81 CALM      29.66F
MCGREGOR       PTCLDY    37  36  93 SW3       29.68R
$$
MNZ071>073-080-081-089-090-097-098-220600-
   Southwest Minnesota

CITY           SKY/WX    TMP DP  RH WIND       PRES   REMARKS
MONTEVIDEO     CLOUDY    43  43 100 S7        29.67F
GRANITE FALLS  CLOUDY    40  40  98 S9        29.71R
CANBY          MOCLDY    48  39  71 E13       29.64F
MARSHALL       LGT RAIN  42  39  89 W10       29.71R
REDWOOD FALLS  PTCLDY    44  39  82 CALM      29.67S
OLIVIA         MOCLDY    41  37  87 E3        29.67F
PIPESTONE      PTCLDY   N/A N/A N/A S10       29.65F
WINDOM         CLEAR     37  37 100 CALM      29.68F
WORTHINGTON    CLEAR     48  37  65 S9        29.68F
JACKSON        CLEAR     41  36  81 S10       29.70F
TRACY          PTCLDY    49  41  72 CALM      29.68R
SLAYTON        PTCLDY    40  37  91 S9        29.68F
$$
MNZ065>067-074>077-082>085-091>093-220600-
   South Central Minnesota

CITY           SKY/WX    TMP DP  RH WIND       PRES   REMARKS
MANKATO          N/A     44  42  93 SE7       29.69F
NEW ULM        CLEAR     43  39  87 CALM      29.67F
ST JAMES       CLEAR     43  39  87 CALM      29.68F
FAIRMONT       CLEAR     41  39  93 S9        29.71F
GLENCOE        CLEAR     40  40 100 CALM      29.67F
FARIBAULT      PTCLDY    37  37 100 CALM      29.71F FOG
OWATONNA       CLEAR     46  39  76 S10       29.71F
WASECA         CLEAR     45  37  76 S6        29.72S
ALBERT LEA     CLEAR     48  39  71 W3        29.73S
$$
MNZ078>079-086>088-094>096-220600-
   Southeast Minnesota

CITY           SKY/WX    TMP DP  RH WIND       PRES   REMARKS
ROCHESTER      CLEAR     45  39  79 S14       29.73F
RED WING       CLEAR     46  39  76 CALM      29.70F
STANTON        CLEAR     43  40  90 S5        29.69F
DODGE CENTER   CLEAR     45  39  81 S12       29.72F
WINONA         CLEAR     52  37  58 S7        29.73F
AUSTIN         CLEAR     45  37  76 S5        29.73F
PRESTON        CLEAR     47  38  71 S15       29.75F
$$
ABBREVIATIONS USED IN REMARKS
   TC - TEMPERATURES IN CELSIUS
  WCI - WIND CHILL INDEX
   HX - HEAT INDEX
  VSB - VISIBILITY
$$




USA.gov is the U.S. government's official web portal to all federal, state and local government web resources and services.